User: anonymous   Login
Location: Unspecified
(0.0000°N, 0.0000°E)
Time: 13:07:38
(UTC+01:00)
Language:

Cosmos 1933 - Orbit

View from above orbital plane
View from above orbital plane
View from above satellite
View from above satellite

Ground track
Ground track

The orbit data is extracted from the following two-line orbital elements,

1 18958U 88020A   15027.15473681  .00001179  00000-0  88831-4 0  5355
2 18958 082.5280 224.5364 0012087 012.6791 347.4735 15.01558283460571
Epoch (UTC): 27 January 2015 03:42:49
Eccentricity: 0.0012087
inclination: 82.5280°
perigee height: 554 km
apogee height: 570 km
right ascension of ascending node: 224.5364°
argument of perigee: 12.6791°
revolutions per day: 15.01558283
mean anomaly at epoch: 347.4735°
orbit number at epoch: 46057

The dashed part of the orbit path shows where the satellite is in the earth's shadow,  

DLR